This demonstration page uses our WeatherBlox Daily Observations layout. Learn more.

Left ArrowRight Arrow

38.20091, -84.87328

Hourly Observations for May 27, 2020

Temp ( °F °C ) Dew Point ( °F °C ) Humidity (%) Winds ( mph kmh ) Pressure ( in mb ) Visibility ( mi km ) Precip ( " mm )
12:53 am 00:53 Cloudy 71 21.7 67 19.4 87 87 Calm 29.98 1015 10 16 0.00 0.00
1:53 am 01:53 Cloudy 72 22.2 68 20 87 87 SE 3 6 29.99 1016 10 16 0.00 0.00
2:53 am 02:53 Cloudy 72 22.2 68 20 87 87 SE 3 6 29.98 1015 10 16 0.00 0.00
3:53 am 03:53 Cloudy 72 22.2 67 19.4 84 84 SSE 5 7 29.98 1015 10 16 0.00 0.00
4:53 am 04:53 Mostly Cloudy 71 21.7 66 18.9 84 84 SSE 6 9 29.98 1015 10 16 0.00 0.00
5:53 am 05:53 Cloudy 70 21.1 66 18.9 87 87 SE 5 7 29.97 1015 10 16 0.00 0.00
6:53 am 06:53 Cloudy 71 21.7 65 18.3 81 81 Calm 29.98 1015 10 16 0.00 0.00
7:53 am 07:53 Cloudy 71 21.7 66 18.9 84 84 Calm 29.99 1016 10 16 0.00 0.00
8:53 am 08:53 Sunny 75 23.9 66 18.9 74 74 VRB 5 7 29.99 1016 10 16 0.00 0.00
9:53 am 09:53 Mostly Sunny 77 25 66 18.9 69 69 VRB 5 7 29.99 1016 10 16 0.00 0.00
10:53 am 10:53 Mostly Cloudy 79 26.1 65 18.3 62 62 SSE 10 17 29.99 1016 10 16 0.00 0.00
11:53 am 11:53 Cloudy 79 26.1 64 17.8 60 60 S 9 15 29.99 1016 10 16 0.00 0.00
12:53 pm 12:53 Cloudy 74 23.3 64 17.8 71 71 SW 9 15 30.00 1016 10 16 0.00 0.00
1:53 pm 13:53 Cloudy 77 25 63 17.2 62 62 SSE 3 6 29.98 1015 10 16 0.00 0.00
2:53 pm 14:53 Cloudy 81 27.2 65 18.3 58 58 SSE 6 9 29.97 1015 10 16 0.00 0.00
3:53 pm 15:53 Cloudy 80 26.7 63 17.2 56 56 S 8 13 29.95 1014 10 16 0.00 0.00
4:53 pm 16:53 Cloudy 80 26.7 64 17.8 58 58 undefined N/A 29.94 1014 10 16 0.00 0.00
5:53 pm 17:53 Cloudy 79 26.1 65 18.3 62 62 SSE 8 13 29.94 1014 10 16 0.00 0.00
6:53 pm 18:53 Cloudy 73 22.8 66 18.9 79 79 W 6 9 29.95 1014 10 16 0.00 0.00
7:53 pm 19:53 Cloudy 73 22.8 66 18.9 79 79 WNW 3 6 29.93 1014 10 16 0.00 0.00
8:53 pm 20:53 Mostly Sunny 72 22.2 66 18.9 82 82 Calm 29.93 1013 10 16 0.00 0.00
9:53 pm 21:53 Clear 70 21.1 66 18.9 87 87 Calm 29.93 1014 10 16 0.00 0.00
10:53 pm 22:53 Mostly Cloudy 69 20.6 65 18.3 87 87 ENE 6 9 29.93 1014 10 16 0.00 0.00
11:53 pm 23:53 Mostly Clear 69 20.6 65 18.3 87 87 Calm 29.93 1014 10 16 0.00 0.00

Powered by AerisWeather